This is the latest recevied weather packets stored in our database for station/object K3PPP. If no packets are shown the sender has not sent any weather packets the latest 10 day(s).
| Time | Temp. | Humidity | Pressure | Rain* | Wind** | Luminosity | Snow |
|---|---|---|---|---|---|---|---|
| 1777811640 | 2.22° C | 81% | 1016.9 hPa | 0 mm | - | 249 W/m² | - |
| 1777811339 | 2.22° C | 82% | 1016.9 hPa | 0 mm | - | 237 W/m² | - |
| 1777811036 | 2.22° C | 83% | 1016.7 hPa | 0 mm | - | 221 W/m² | - |
| 1777810734 | 2.22° C | 83% | 1017 hPa | 0 mm | - | 203 W/m² | - |
| 1777810430 | 1.67° C | 84% | 1016.9 hPa | 0 mm | - | 188 W/m² | - |
| 1777810126 | 1.67° C | 85% | 1016.7 hPa | 0 mm | - | 173 W/m² | - |
| 1777809823 | 1.67° C | 87% | 1016.8 hPa | 0 mm | - | 155 W/m² | - |
| 1777809521 | 1.67° C | 87% | 1016.5 hPa | 0 mm | - | 143 W/m² | - |
| 1777809219 | 1.67° C | 90% | 1016.6 hPa | 0 mm | - | 129 W/m² | - |
| 1777808917 | 0.56° C | 90% | 1016.4 hPa | 0 mm | - | 116 W/m² | - |
| 1777808613 | 0.56° C | 94% | 1016.5 hPa | 0 mm | - | 100 W/m² | - |
| 1777808310 | 0.56° C | 95% | 1016.2 hPa | 0 mm | - | 91 W/m² | - |
| 1777808009 | 0° C | 97% | 1016.4 hPa | 0 mm | - | 79 W/m² | - |
| 1777807705 | 0° C | 98% | 1016.2 hPa | 0 mm | - | 38 W/m² | - |
| 1777807404 | -0.56° C | 99% | 1016.4 hPa | 0 mm | - | 78 W/m² | - |
| 1777807104 | -0.56° C | 99% | 1016.1 hPa | 0 mm | - | 69 W/m² | - |
| 1777806802 | -0.56° C | 99% | 1015.9 hPa | 0 mm | - | 57 W/m² | - |
| 1777806497 | -1.11° C | 99% | 1016.1 hPa | 0 mm | - | 38 W/m² | - |
| 1777806194 | -1.11° C | 99% | 1015.9 hPa | 0 mm | - | 28 W/m² | - |
| 1777805890 | -1.11° C | 99% | 1015.8 hPa | 0 mm | - | 25 W/m² | - |
| 1777805588 | -1.11° C | 99% | 1015.9 hPa | 0 mm | - | 23 W/m² | - |
| 1777805286 | -1.11° C | 99% | 1015.8 hPa | 0 mm | - | 18 W/m² | - |
| 1777804983 | -1.67° C | 99% | 1015.7 hPa | 0 mm | - | 15 W/m² | - |
| 1777804680 | -1.67° C | 99% | 1015.5 hPa | 0 mm | - | 12 W/m² | - |
| 1777804378 | -1.67° C | 99% | 1015.5 hPa | 0 mm | - | 10 W/m² | - |
* Rain latest hour (hover to see other rain measurements)
** Current wind speed in m/s (hover to see current wind gust speed)